Regional Weather Roundup
Issued by NWS Portland, ME

Current Version | Previous Version | Text Only | Print | Product List | Glossary Off
Versions: 1 2 3 4 5 6 7 8 9 10 11 12 13 14 15 16 17 18 19 20 21 22 23 24 25 26 27 28 29 30 31 32 33 34 35 36 37 38 39 40 41 42 43 44 45 46 47 48 49 50

000
ASUS41 KGYX 281805
RWRGYX
WEATHER ROUNDUP FOR MAINE AND NEW HAMPSHIRE
NATIONAL WEATHER SERVICE GRAY ME
200 PM EDT THU AUG 28 2014

MEZ002-005-006-010-012-015-018-020-021-024-026-027-029-281900-
MAINE

CITY           SKY/WX    TMP DP  RH WIND       PRES   REMARKS
PORTLAND       PTSUNNY   76  52  43 NW15G21   29.78S
6HR MIN TEMP:  69; 6HR MAX TEMP:  78;

SANFORD        PTSUNNY   77  50  38 W15       29.80F
BAR HARBOR     SUNNY     75  52  43 NW12G18   29.72S
WISCASSET      MOSUNNY   76  52  43 CALM      29.78S
6HR MIN TEMP:  69; 6HR MAX TEMP:  77;

ROCKLAND       PTSUNNY   75  54  46 NW9       29.73S
FRYEBURG       MOSUNNY   75  49  39 W12G18    29.82S
6HR MIN TEMP:  64; 6HR MAX TEMP:  76;

LEWISTONAUBURN PTSUNNY   72  52  49 NW12G20   29.80S
AUGUSTA        PTSUNNY   74  48  39 NW15G24   29.78S
6HR MIN TEMP:  65; 6HR MAX TEMP:  76;

WATERVILLE     PTSUNNY   72  48  43 NW13G20   29.74S
BANGOR         MOSUNNY   75  48  38 NW16G23   29.74F
6HR MIN TEMP:  66; 6HR MAX TEMP:  77;

GREENVILLE       N/A     68  50  52 NW12G24   29.78S
6HR MIN TEMP:  59; 6HR MAX TEMP:  69;

MILLINOCKET    PTSUNNY   74  50  42 NW12      29.74F
6HR MIN TEMP:  66; 6HR MAX TEMP:  76;

HOULTON        PTSUNNY   69  53  56 N12       29.71F
6HR MIN TEMP:  63; 6HR MAX TEMP:  73;

PRESQUE ISLE   CLOUDY    64  54  68 NW9G17    29.73S
6HR MIN TEMP:  61; 6HR MAX TEMP:  68; 6HR PCP:  0.03;

FRENCHVILLE    CLOUDY    60  52  74 NW17      29.77R
6HR MIN TEMP:  57; 6HR MAX TEMP:  62; 6HR PCP:  0.01;

CARIBOU        MOSUNNY   70  51  51 NW14G23   29.73S
$$

NHZ002-005-008-009-011-012-014-281900-
NEW HAMPSHIRE

CITY           SKY/WX    TMP DP  RH WIND       PRES   REMARKS
PORTSMOUTH     MOSUNNY   80  50  36 NW21G28   29.78S
ROCHESTER      MOSUNNY   76  50  40 NW16G24   29.80S
6HR MIN TEMP:  68; 6HR MAX TEMP:  78;

NASHUA         PTSUNNY   76  51  41 N12G21    29.83S
MANCHESTER     PTSUNNY   78  51  38 NW15G22   29.81S
6HR MIN TEMP:  69; 6HR MAX TEMP:  78;

CONCORD        PTSUNNY   77  53  43 NW14G22   29.83S
6HR MIN TEMP:  66; 6HR MAX TEMP:  77;

LACONIA        MOSUNNY   73  48  40 NW13G21   29.82F
PLYMOUTH       CLOUDY    69  55  61 NW10G18   29.85R
BERLIN         MOSUNNY   70  48  45 VRB6G17   29.86S
6HR MIN TEMP:  59; 6HR MAX TEMP:  70; 6HR PCP: TRACE;

WHITEFIELD     PTSUNNY   69  51  52 NW14G20   29.87S
6HR MIN TEMP:  58; 6HR MAX TEMP:  70;

JAFFREY        MOSUNNY   73  47  39 NW10G23   29.87S
6HR MIN TEMP:  66; 6HR MAX TEMP:  74;

LEBANON        PTSUNNY   74  48  39 NW13G20   29.87S
6HR MIN TEMP:  64; 6HR MAX TEMP:  76;

MT WASHINGTON  FOG       41  41 100 W46G66      N/A  VSB 0
6HR MIN TEMP:  40; 6HR MAX TEMP:  42;

$$

VTZ005-007-008-281900-
VERMONT

CITY           SKY/WX    TMP DP  RH WIND       PRES   REMARKS
ST JOHNSBURY     N/A     68  46  45 MISG      29.87S
MONTPELIER     PTSUNNY   65  51  60 NW13      29.95S
BURLINGTON     PTSUNNY   72  49  44 N16       29.93R
$$

MAZ007-012-024-CTZ003-RIZ002-NYZ038-NYZ072-281900-
SOUTHERN NEW ENGLAND AND NY

CITY           SKY/WX    TMP DP  RH WIND       PRES   REMARKS
BOSTON         MOSUNNY   80  52  37 NW17G23   29.79F
WORCESTER      CLOUDY    73  52  47 NW8       29.86S
NANTUCKET      MOSUNNY   77  57  50 N18G28    29.79R
PROVIDENCE     MOSUNNY   81  53  37 NW14      29.82R
HARTFORD       PTSUNNY   78  52  40 N12       29.84S
ALBANY         PTSUNNY   73  54  51 W16       29.91S
NEW YORK CITY  MOSUNNY   79  54  41 NW13      29.87F
$$

ANZ081-ANZ082-ANZ150-NHZ014-MEZ023>029-281900-
COASTAL MARINE OBSERVATIONS

STATION/POSITION TIME  TEMP    WIND        PRES    WAVE
                       AIR SEA DIR/SP/G            HT/PER
                 (UTC) (F)     (DEG/KT/KT) (MB)    (FT/S)
MATINICUS ROCK   1700          350/ 11/ 11 1006.9F
PORTLAND WX BUOY 1750   69 63  350/ 12/ 14 1007.9F   3/13
WELLS            1700   76 56  330/ 11/ 16 1007.6F
ISLE OF SHOALS   1700   71      50/  5/  5 1008.2F
JEFFREYS LEDGE   1721      67                N/A     4/12
CASHES LEDGE BUO 1750   68 68              1006.9S   6/13
$$

.............KEY..............
   WCI - WIND CHILL
   TC  - TEMPERATURE IN CELSIUS
   VSB - VISIBILITY IN MILES
   HX  - HEAT INDEX
   FAIR- INDICATES FEW OR NO CLOUDS BELOW 12,000 FT, WITH NO
         SIGNIFICANT WEATHER AND/OR OBSTRUCTIONS TO VISIBILITY.




USA.gov is the U.S. government's official web portal to all federal, state and local government web resources and services.